Content
SEND FEEDBACK

Daily
Averages
Monthly
Summary
United States of America

YIGO, GUAM


Home > North America > United States > Guam
Elevation: 530 feet     Latitude: 13 32N     Longitude: 144 53E

WEATHER
 
SELECT A DAY
Number of Records: 209,133;   Date Range: 1/1/95 - 8/28/14
 
SHARE

PRINT THIS DATA

[ ← Previous Day ]
WEATHER ALMANAC - FEBRUARY 6, 2013
[ Next Day → ]
[ °C ]   °F
Weather ElementAverageHighLow
Temperature79.9 °F84 °F (12:54 pm)77 °F (4:54 am)
Dewpoint70.6 °F71.1 °F (1:54 am)68 °F (12:54 pm)
Humidity73.3 %82 % (4:54 am)58 % (12:54 pm)
Barometer29.89 in29.94 in (8:54 am)29.83 in (3:54 pm)
Wind Speed9.5 mph13.8 mph (9:54 am)
Wind Gust20.7 mph (8:54 am)
Weather ElementAverage
Visibility10 mi
Wind DirectionE (84.8 °)

Weather ElementTotal
Precipitation---
Cooling Degree Days15.5 (Base 65)
Growing Degree Days30.5 (Base 50)
Averaged from 23 records on February 6, 2013
WEATHER CONDITIONS BREAKOUT
WIND DIRECTION BREAKOUT
WEATHER BY HOUR - FEBRUARY 6, 2013
[ °C ]   °F
Local TimeTemperatureDewpointHumidityBarometerVisibilityWind DirectionWind SpeedGust SpeedPrecipitationEventsConditions
1:54 AM78.1 °F71.1 °F79 %29.89 in10.0 miENE (70°)8.1 mph0.00 inPartly Cloudy
2:54 AM78.1 °F70.0 °F76 %29.88 in10.0 miEast (80°)10.4 mphScattered Clouds
3:54 AM78.1 °F71.1 °F79 %29.88 in10.0 miEast (80°)6.9 mphMostly Cloudy
4:54 AM77.0 °F71.1 °F82 %29.88 in10.0 miEast (90°)5.8 mphClear
5:54 AM77.0 °F71.1 °F82 %29.89 in10.0 miEast (90°)6.9 mphPartly Cloudy
6:54 AM77.0 °F71.1 °F82 %29.91 in10.0 miEast (80°)6.9 mphPartly Cloudy
7:54 AM79.0 °F71.1 °F77 %29.93 in10.0 miEast (80°)9.2 mphClear
8:54 AM81.0 °F71.1 °F72 %29.94 in10.0 miEast (100°)12.7 mph20.7 mphScattered Clouds
9:54 AM82.0 °F71.1 °F69 %29.94 in10.0 miEast (80°)13.8 mphScattered Clouds
10:54 AM82.0 °F71.1 °F69 %29.93 in10.0 miEast (100°)12.7 mph20.7 mphPartly Cloudy
11:54 AM82.0 °F71.1 °F69 %29.90 in10.0 miEast (100°)12.7 mph19.6 mphMostly Cloudy
12:54 PM84.0 °F68.0 °F58 %29.88 in10.0 miEast (90°)12.7 mph20.7 mphMostly Cloudy
1:54 PM82.9 °F71.1 °F67 %29.85 in10.0 miEast (100°)12.7 mphScattered Clouds
2:54 PM84.0 °F69.1 °F61 %29.84 in10.0 miEast (100°)11.5 mph19.6 mphClear
3:54 PM82.9 °F69.1 °F63 %29.83 in10.0 miEast (80°)13.8 mphPartly Cloudy
4:54 PM82.0 °F69.1 °F65 %29.83 in10.0 miEast (100°)11.5 mphClear
5:54 PM81.0 °F71.1 °F72 %29.84 in10.0 miENE (70°)10.4 mphClear
6:54 PM79.0 °F70.0 °F74 %29.86 in10.0 miEast (80°)6.9 mphClear
7:54 PM79.0 °F71.1 °F77 %29.88 in10.0 miENE (70°)6.9 mphClear
8:54 PM79.0 °F71.1 °F77 %29.90 in10.0 miENE (70°)6.9 mphPartly Cloudy
9:54 PM78.1 °F71.1 °F79 %29.91 in10.0 miEast (80°)5.8 mphPartly Cloudy
10:54 PM78.1 °F71.1 °F79 %29.90 in10.0 miEast (80°)6.9 mphClear
11:54 PM77.0 °F70.0 °F79 %29.90 in10.0 miEast (80°)6.9 mphClear
Hourly data recorded from PGUM, located miles away from Yigo, Guam







STORIES FROM OUR PARTNERS